STARLINK-3814, 52335

Orbit data source: Space-Track

STARLINK-3814, 52335 is a payload satellite owned by SpaceX/Seattle (US) in LEO that was launched on Fri, 29 Apr 2022 UTC via an FALCON 9 launch vehicle from the Air Force Eastern Test Range (AFETR). Payload-class satellites include a variety of spacecraft equipped with specific instruments for various scientific and technological missions. These include communications satellites like Starlink; space stations such as the ISS; scientific satellites like the Hubble; Earth observation satellites from companies like Planet Labs, Umbra, and HawkEye 360; GPS; miniature CubeSats for education and research; and military/defense satellites.

Loading next visibility...
Identifier
52335, 2022-045E
Orbit
LEO
Country
Flag of USUS
Related business
Manufacturer
SpaceX/Seattle
Mission
Operational Commercial Communications
Bus & Motor
STARLINK, Unknown motor
Mass
297 kg wet, ~275 kg dry
Launch date (UTC)
2022-04-29 (4 years ago)
Launch vehicle
FALCON 9
Launch site
Air Force Eastern Test Range (AFETR)
Object type
Payload
Rocket body
Debris
Shape & HBR
Box + 1 Pan, 10.1 m
Radar Cross Section
11.087 m², Large (>1 m²)

Expand to show TLE details & history
Last TLE update: 8 hours ago

TLE from 8 hours ago
0 STARLINK-3814
1 52335U 22045E   26119.90998829  .00000135  00000-0  26550-4 0  9995
2 52335  53.2187 339.1860 0001481  88.1335 271.9827 15.08833574223375
Epoch: 2026-04-29T21:50Z
TLE epoch observation values (Epoch: 2026-04-29T21:50:22.988Z)
Latitude
0.00001°
Longitude
153.72604°
Altitude
540.625 km
Speed
7.593 km/s
True Right ascension
22h 36m 44s
True Declination
0° 00' 00"
Sunlit
Object was in daylight at epoch
Visualization orbit readout
Latitude
Unknown
Longitude
Unknown
Altitude
Unknown
Speed
Unknown
Apparent Right ascension
Unknown
Apparent Declination
Unknown
Sunlit
N/A
Visualization observer readout
Local Sidereal Time
12:59:19
Azimuth
Unknown
Elevation
Unknown
Doppler factor
Unknown
Orbital elements
Apogee altitude
541.032 km
Perigee altitude
538.983 km
Semi-major axis
6,918.145 km
Eccentricity
0.00015
Inclination
53.2187°
RAAN
339.186°
Arg. of periapsis
88.1335°
True anomaly
271.96574°
Mean anomaly
271.9827°
Eccentric anomaly
271.97422°
Mean motion
3.77189 °/min
Orbital period
95.44 mins
BSTAR
0.00002655
Loading maneuver chart data...
Computing Atmospheric mass density...
Loading historical data...
Loading historical data...
Loading historical data...
Loading historical data...
Loading historical data...
Loading historical data...
Loading historical data...

Documentation

Showing up to 5 results
|